Time,TemperatureF,DewpointF,PressureIn,WindDirection,WindDirectionDegrees,WindSpeedMPH,WindSpeedGustMPH,Humidity,HourlyPrecipIn,Conditions,Clouds,dailyrainin,SoftwareType,DateUTC
2013-08-31 00:02:00,81.1,66.8,29.73,SSW,203,1.7,1.7,62,0.00,,,0.00,WUHU216HW,2013-08-31 05:02:00,
2013-08-31 00:07:00,80.9,66.7,29.73,SSE,158,0.0,2.0,62,0.00,,,0.00,WUHU216HW,2013-08-31 05:07:00,
2013-08-31 00:12:00,80.7,66.9,29.73,West,270,0.0,5.8,63,0.00,,,0.00,WUHU216HW,2013-08-31 05:12:00,
2013-08-31 00:17:00,80.7,66.9,29.73,South,180,0.0,5.8,63,0.00,,,0.00,WUHU216HW,2013-08-31 05:17:00,
2013-08-31 00:22:00,80.7,66.9,29.73,SSW,203,0.0,3.5,63,0.00,,,0.00,WUHU216HW,2013-08-31 05:22:00,
2013-08-31 00:27:00,80.6,66.8,29.73,WSW,248,1.1,2.9,63,0.00,,,0.00,WUHU216HW,2013-08-31 05:27:00,
2013-08-31 00:32:00,80.6,66.8,29.73,SW,225,1.5,2.9,63,0.00,,,0.00,WUHU216HW,2013-08-31 05:32:00,
2013-08-31 00:37:00,80.6,66.8,29.73,SSW,203,4.2,4.4,63,0.00,,,0.00,WUHU216HW,2013-08-31 05:37:00,
2013-08-31 00:42:00,80.4,66.6,29.73,SSW,203,2.0,4.4,63,0.00,,,0.00,WUHU216HW,2013-08-31 05:42:00,
2013-08-31 00:47:00,80.4,66.6,29.72,SSW,203,2.4,4.2,63,0.00,,,0.00,WUHU216HW,2013-08-31 05:47:00,
2013-08-31 00:52:00,80.4,66.6,29.72,WSW,248,3.3,3.3,63,0.00,,,0.00,WUHU216HW,2013-08-31 05:52:00,
2013-08-31 00:57:00,80.4,66.6,29.72,South,180,0.0,3.3,63,0.00,,,0.00,WUHU216HW,2013-08-31 05:57:00,
2013-08-31 01:02:00,80.4,66.6,29.72,SW,225,0.0,0.0,63,0.00,,,0.00,WUHU216HW,2013-08-31 06:02:00,
2013-08-31 01:07:00,80.2,66.9,29.72,West,270,2.0,2.0,64,0.00,,,0.00,WUHU216HW,2013-08-31 06:07:00,
2013-08-31 01:12:00,80.2,67.3,29.72,SSW,203,2.0,2.0,65,0.00,,,0.00,WUHU216HW,2013-08-31 06:12:00,
2013-08-31 01:17:00,80.0,67.2,29.72,South,180,0.0,2.0,65,0.00,,,0.00,WUHU216HW,2013-08-31 06:17:00,
2013-08-31 01:22:00,80.0,67.6,29.72,NNE,23,0.0,1.1,66,0.00,,,0.00,WUHU216HW,2013-08-31 06:22:00,
2013-08-31 01:27:00,80.0,67.6,29.73,SW,225,0.0,1.1,66,0.00,,,0.00,WUHU216HW,2013-08-31 06:27:00,
2013-08-31 01:32:00,79.8,67.4,29.72,SW,225,0.0,1.3,66,0.00,,,0.00,WUHU216HW,2013-08-31 06:32:00,
2013-08-31 01:37:00,79.8,67.4,29.72,South,180,0.0,1.5,66,0.00,,,0.00,WUHU216HW,2013-08-31 06:37:00,
2013-08-31 01:42:00,79.7,67.3,29.72,West,270,0.0,1.5,66,0.00,,,0.00,WUHU216HW,2013-08-31 06:42:00,
2013-08-31 01:47:00,79.5,67.1,29.72,West,270,0.0,2.2,66,0.00,,,0.00,WUHU216HW,2013-08-31 06:47:00,
2013-08-31 01:52:00,79.5,67.5,29.72,SW,225,0.0,2.2,67,0.00,,,0.00,WUHU216HW,2013-08-31 06:52:00,
2013-08-31 01:57:00,79.5,67.5,29.72,South,180,0.0,0.0,67,0.00,,,0.00,WUHU216HW,2013-08-31 06:57:00,
2013-08-31 02:02:00,79.3,67.4,29.71,West,270,2.0,4.4,67,0.00,,,0.00,WUHU216HW,2013-08-31 07:02:00,
2013-08-31 02:07:00,79.1,67.6,29.71,SW,225,1.1,4.4,68,0.00,,,0.00,WUHU216HW,2013-08-31 07:07:00,
2013-08-31 02:12:00,79.1,67.6,29.71,WNW,293,1.3,2.0,68,0.00,,,0.00,WUHU216HW,2013-08-31 07:12:00,
2013-08-31 02:17:00,78.9,67.4,29.72,WSW,248,2.2,2.2,69,0.00,,,0.00,WUHU216HW,2013-08-31 07:17:00,
2013-08-31 02:22:00,78.6,67.5,29.72,NW,315,0.0,2.2,69,0.00,,,0.00,WUHU216HW,2013-08-31 07:22:00,
2013-08-31 02:27:00,78.6,67.5,29.72,SW,225,2.6,2.6,69,0.00,,,0.00,WUHU216HW,2013-08-31 07:27:00,
2013-08-31 02:32:00,78.6,68.0,29.72,West,270,2.0,2.6,69,0.00,,,0.00,WUHU216HW,2013-08-31 07:32:00,
2013-08-31 02:37:00,78.4,67.8,29.72,SW,225,0.0,2.0,70,0.00,,,0.00,WUHU216HW,2013-08-31 07:37:00,
2013-08-31 02:42:00,78.0,67.5,29.72,SSW,203,0.0,2.0,70,0.00,,,0.00,WUHU216HW,2013-08-31 07:42:00,
2013-08-31 02:47:00,77.9,67.3,29.72,South,180,0.0,0.8,70,0.00,,,0.00,WUHU216HW,2013-08-31 07:47:00,
2013-08-31 02:52:00,77.7,67.2,29.72,SSW,203,0.0,0.8,70,0.00,,,0.00,WUHU216HW,2013-08-31 07:52:00,
2013-08-31 02:57:00,77.5,67.0,29.72,South,180,0.0,0.0,70,0.00,,,0.00,WUHU216HW,2013-08-31 07:57:00,
2013-08-31 03:02:00,77.5,67.4,29.72,South,180,0.0,0.0,71,0.00,,,0.00,WUHU216HW,2013-08-31 08:02:00,
2013-08-31 03:07:00,77.1,67.1,29.71,SSW,203,0.0,0.0,71,0.00,,,0.00,WUHU216HW,2013-08-31 08:07:00,
2013-08-31 03:12:00,77.1,67.4,29.72,SW,225,0.0,0.0,72,0.00,,,0.00,WUHU216HW,2013-08-31 08:12:00,
2013-08-31 03:17:00,76.8,67.1,29.71,South,180,1.7,1.7,72,0.00,,,0.00,WUHU216HW,2013-08-31 08:17:00,
2013-08-31 03:22:00,76.8,67.5,29.72,West,270,0.0,1.7,73,0.00,,,0.00,WUHU216HW,2013-08-31 08:22:00,
2013-08-31 03:27:00,76.6,67.7,29.71,WNW,293,0.0,1.7,74,0.00,,,0.00,WUHU216HW,2013-08-31 08:27:00,
2013-08-31 03:32:00,76.4,67.9,29.71,WNW,293,0.0,0.0,75,0.00,,,0.00,WUHU216HW,2013-08-31 08:32:00,
2013-08-31 03:37:00,76.2,68.1,29.71,NW,315,0.0,0.0,76,0.00,,,0.00,WUHU216HW,2013-08-31 08:37:00,
2013-08-31 03:42:00,76.2,68.1,29.71,SSE,158,0.0,0.0,76,0.00,,,0.00,WUHU216HW,2013-08-31 08:42:00,
2013-08-31 03:47:00,76.1,67.9,29.71,WNW,293,1.3,1.3,76,0.00,,,0.00,WUHU216HW,2013-08-31 08:47:00,
2013-08-31 03:52:00,75.9,68.1,29.71,North,0,0.0,1.3,77,0.00,,,0.00,WUHU216HW,2013-08-31 08:52:00,
2013-08-31 03:57:00,75.9,68.5,29.71,WNW,293,0.0,1.3,78,0.00,,,0.00,WUHU216HW,2013-08-31 08:57:00,
2013-08-31 04:02:00,75.9,68.5,29.71,North,0,0.0,0.0,79,0.00,,,0.00,WUHU216HW,2013-08-31 09:02:00,
2013-08-31 04:07:00,75.7,68.8,29.72,WNW,293,0.0,0.0,79,0.00,,,0.00,WUHU216HW,2013-08-31 09:07:00,
2013-08-31 04:13:00,75.7,68.8,29.72,North,0,0.0,0.0,79,0.00,,,0.00,WUHU216HW,2013-08-31 09:13:00,
2013-08-31 04:17:00,75.7,68.6,29.72,ENE,68,0.0,0.0,79,0.00,,,0.00,WUHU216HW,2013-08-31 09:17:00,
2013-08-31 04:22:00,75.5,69.0,29.72,West,270,0.0,0.0,80,0.00,,,0.00,WUHU216HW,2013-08-31 09:22:00,
2013-08-31 04:27:00,75.3,68.8,29.72,West,270,0.0,0.0,80,0.00,,,0.00,WUHU216HW,2013-08-31 09:27:00,
2013-08-31 04:32:00,75.3,69.2,29.73,NW,315,0.0,0.0,81,0.00,,,0.00,WUHU216HW,2013-08-31 09:32:00,
2013-08-31 04:37:00,75.3,69.5,29.73,NW,315,0.0,0.0,82,0.00,,,0.00,WUHU216HW,2013-08-31 09:37:00,
2013-08-31 04:42:00,75.3,69.9,29.73,West,270,0.0,0.0,83,0.00,,,0.00,WUHU216HW,2013-08-31 09:42:00,
2013-08-31 04:48:00,75.3,70.2,29.73,WNW,293,1.5,1.5,84,0.00,,,0.00,WUHU216HW,2013-08-31 09:48:00,
2013-08-31 04:53:00,75.3,70.2,29.73,NNW,338,0.0,1.5,84,0.00,,,0.00,WUHU216HW,2013-08-31 09:53:00,
2013-08-31 04:58:00,75.2,70.0,29.73,NNW,338,0.0,1.5,84,0.00,,,0.00,WUHU216HW,2013-08-31 09:58:00,
2013-08-31 05:02:00,75.0,69.9,29.73,NNW,338,0.0,1.3,84,0.00,,,0.00,WUHU216HW,2013-08-31 10:02:00,
2013-08-31 05:08:00,75.0,70.2,29.73,NW,315,0.0,1.3,85,0.00,,,0.00,WUHU216HW,2013-08-31 10:08:00,
2013-08-31 05:13:00,75.0,70.2,29.73,NW,315,0.0,0.0,85,0.00,,,0.00,WUHU216HW,2013-08-31 10:13:00,
2013-08-31 05:18:00,75.0,70.2,29.73,WNW,293,0.0,0.0,85,0.00,,,0.00,WUHU216HW,2013-08-31 10:18:00,
2013-08-31 05:22:00,75.0,70.2,29.73,WNW,293,0.0,0.0,85,0.00,,,0.00,WUHU216HW,2013-08-31 10:22:00,
2013-08-31 05:27:00,74.8,70.0,29.73,NW,315,0.0,0.0,85,0.00,,,0.00,WUHU216HW,2013-08-31 10:27:00,
2013-08-31 05:33:00,74.8,70.0,29.73,West,270,0.0,2.6,85,0.00,,,0.00,WUHU216HW,2013-08-31 10:33:00,
2013-08-31 05:38:00,74.8,70.0,29.73,NNW,338,0.0,2.6,85,0.00,,,0.00,WUHU216HW,2013-08-31 10:38:00,
2013-08-31 05:43:00,74.6,70.2,29.72,NNW,338,1.5,1.5,86,0.00,,,0.00,WUHU216HW,2013-08-31 10:43:00,
2013-08-31 05:48:00,74.4,70.3,29.73,NNW,338,0.0,1.5,87,0.00,,,0.00,WUHU216HW,2013-08-31 10:48:00,
2013-08-31 05:53:00,74.4,70.3,29.72,NW,315,0.0,0.0,87,0.00,,,0.00,WUHU216HW,2013-08-31 10:53:00,
2013-08-31 05:58:00,74.4,70.3,29.73,North,0,0.0,0.0,87,0.00,,,0.00,WUHU216HW,2013-08-31 10:58:00,
2013-08-31 06:03:00,74.4,70.3,29.73,NNW,338,0.0,0.0,87,0.00,,,0.00,WUHU216HW,2013-08-31 11:03:00,
2013-08-31 06:08:00,74.3,70.2,29.73,North,0,0.0,0.0,87,0.00,,,0.00,WUHU216HW,2013-08-31 11:08:00,
2013-08-31 06:13:00,74.3,70.5,29.73,NW,315,0.0,0.0,88,0.00,,,0.00,WUHU216HW,2013-08-31 11:13:00,
2013-08-31 06:18:00,74.1,70.3,29.73,West,270,0.0,0.0,88,0.00,,,0.00,WUHU216HW,2013-08-31 11:18:00,
2013-08-31 06:23:00,74.1,70.3,29.73,NNW,338,0.0,0.0,88,0.00,,,0.00,WUHU216HW,2013-08-31 11:23:00,
2013-08-31 06:28:00,74.1,70.3,29.73,NNE,23,0.0,0.0,88,0.00,,,0.00,WUHU216HW,2013-08-31 11:28:00,
2013-08-31 06:33:00,74.1,70.3,29.73,NW,315,0.0,2.0,88,0.00,,,0.00,WUHU216HW,2013-08-31 11:33:00,
2013-08-31 06:38:00,73.9,70.5,29.74,West,270,2.6,2.6,89,0.00,,,0.00,WUHU216HW,2013-08-31 11:38:00,
2013-08-31 06:43:00,73.9,70.5,29.74,West,270,1.7,2.6,89,0.00,,,0.00,WUHU216HW,2013-08-31 11:43:00,
2013-08-31 06:48:00,73.9,70.5,29.74,West,270,0.0,2.6,89,0.00,,,0.00,WUHU216HW,2013-08-31 11:48:00,
2013-08-31 06:53:00,73.9,70.5,29.74,NNW,338,2.0,2.0,89,0.00,,,0.00,WUHU216HW,2013-08-31 11:53:00,
2013-08-31 06:58:00,73.9,70.5,29.74,SW,225,1.3,2.0,89,0.00,,,0.00,WUHU216HW,2013-08-31 11:58:00,
2013-08-31 07:03:00,73.9,70.8,29.74,NW,315,1.7,2.9,90,0.00,,,0.00,WUHU216HW,2013-08-31 12:03:00,
2013-08-31 07:08:00,73.7,70.7,29.74,NNW,338,0.6,2.9,90,0.00,,,0.00,WUHU216HW,2013-08-31 12:08:00,
2013-08-31 07:13:00,73.9,70.8,29.74,NNE,23,0.0,2.4,90,0.00,,,0.00,WUHU216HW,2013-08-31 12:13:00,
2013-08-31 07:18:00,73.9,70.8,29.74,NNW,338,4.0,4.0,90,0.00,,,0.00,WUHU216HW,2013-08-31 12:18:00,
2013-08-31 07:23:00,73.9,70.8,29.74,NNW,338,1.1,4.0,90,0.00,,,0.00,WUHU216HW,2013-08-31 12:23:00,
2013-08-31 07:28:00,73.9,70.8,29.74,North,0,2.4,4.0,90,0.00,,,0.00,WUHU216HW,2013-08-31 12:28:00,
2013-08-31 07:33:00,73.9,70.8,29.74,NW,315,0.0,2.4,90,0.00,,,0.00,WUHU216HW,2013-08-31 12:33:00,
2013-08-31 07:38:00,74.1,71.0,29.74,NNW,338,1.7,1.7,90,0.00,,,0.00,WUHU216HW,2013-08-31 12:38:00,
2013-08-31 07:43:00,74.1,71.0,29.74,NNW,338,0.0,1.7,90,0.00,,,0.00,WUHU216HW,2013-08-31 12:43:00,
2013-08-31 07:48:00,74.3,71.2,29.74,NW,315,2.4,2.4,90,0.00,,,0.00,WUHU216HW,2013-08-31 12:48:00,
2013-08-31 07:53:00,74.4,71.4,29.75,NNE,23,1.3,2.4,90,0.00,,,0.00,WUHU216HW,2013-08-31 12:53:00,
2013-08-31 07:58:00,74.8,71.7,29.75,NNW,338,0.0,2.4,90,0.00,,,0.00,WUHU216HW,2013-08-31 12:58:00,
2013-08-31 08:03:00,75.0,71.6,29.75,WNW,293,2.2,2.4,89,0.00,,,0.00,WUHU216HW,2013-08-31 13:03:00,
2013-08-31 08:08:00,75.2,71.7,29.75,North,0,0.8,2.2,89,0.00,,,0.00,WUHU216HW,2013-08-31 13:08:00,
2013-08-31 08:13:00,75.5,72.1,29.75,NNW,338,2.6,2.9,89,0.00,,,0.00,WUHU216HW,2013-08-31 13:13:00,
2013-08-31 08:18:00,75.5,72.1,29.75,North,0,2.2,2.9,89,0.00,,,0.00,WUHU216HW,2013-08-31 13:18:00,
2013-08-31 08:23:00,75.7,72.3,29.75,WNW,293,2.6,2.6,89,0.00,,,0.00,WUHU216HW,2013-08-31 13:23:00,
2013-08-31 08:28:00,75.9,72.1,29.75,NW,315,4.0,4.0,88,0.00,,,0.00,WUHU216HW,2013-08-31 13:28:00,
2013-08-31 08:33:00,76.1,72.3,29.75,North,0,3.1,4.0,88,0.00,,,0.00,WUHU216HW,2013-08-31 13:33:00,
2013-08-31 08:38:00,76.2,72.5,29.75,North,0,5.1,5.1,88,0.00,,,0.00,WUHU216HW,2013-08-31 13:38:00,
2013-08-31 08:43:00,76.4,72.3,29.75,NNW,338,1.3,5.8,87,0.00,,,0.00,WUHU216HW,2013-08-31 13:43:00,
2013-08-31 08:49:00,76.6,72.5,29.75,NNE,23,6.0,6.0,87,0.00,,,0.00,WUHU216HW,2013-08-31 13:49:00,
2013-08-31 08:54:00,76.6,72.5,29.75,NNW,338,2.4,6.0,87,0.00,,,0.00,WUHU216HW,2013-08-31 13:54:00,
2013-08-31 08:59:00,76.6,72.1,29.75,NNW,338,2.4,5.5,86,0.00,,,0.00,WUHU216HW,2013-08-31 13:59:00,
2013-08-31 09:04:00,76.6,72.1,29.75,NNW,338,6.9,6.9,86,0.00,,,0.00,WUHU216HW,2013-08-31 14:04:00,
2013-08-31 09:09:00,76.8,71.9,29.75,NNE,23,2.9,6.9,85,0.00,,,0.00,WUHU216HW,2013-08-31 14:09:00,
2013-08-31 09:14:00,77.1,72.3,29.75,NW,315,3.3,7.3,85,0.00,,,0.00,WUHU216HW,2013-08-31 14:14:00,
2013-08-31 09:19:00,77.3,72.1,29.75,WNW,293,4.0,7.3,84,0.00,,,0.00,WUHU216HW,2013-08-31 14:19:00,
2013-08-31 09:24:00,77.5,72.3,29.75,NW,315,4.9,4.9,84,0.00,,,0.00,WUHU216HW,2013-08-31 14:24:00,
2013-08-31 09:29:00,78.0,72.5,29.75,WSW,248,1.7,4.9,83,0.00,,,0.00,WUHU216HW,2013-08-31 14:29:00,
2013-08-31 09:34:00,78.6,73.0,29.76,North,0,6.4,6.4,83,0.00,,,0.00,WUHU216HW,2013-08-31 14:34:00,
2013-08-31 09:39:00,78.9,72.6,29.75,NNW,338,7.8,7.8,82,0.00,,,0.00,WUHU216HW,2013-08-31 14:39:00,
2013-08-31 09:44:00,78.9,72.6,29.76,North,0,7.8,7.8,81,0.00,,,0.00,WUHU216HW,2013-08-31 14:44:00,
2013-08-31 09:49:00,79.3,73.0,29.76,North,0,10.2,10.2,81,0.00,,,0.00,WUHU216HW,2013-08-31 14:49:00,
2013-08-31 09:54:00,80.2,73.5,29.76,NNW,338,3.8,10.2,80,0.00,,,0.00,WUHU216HW,2013-08-31 14:54:00,
2013-08-31 09:59:00,80.9,74.3,29.76,NW,315,7.6,7.6,80,0.00,,,0.00,WUHU216HW,2013-08-31 14:59:00,
2013-08-31 10:04:00,81.3,74.2,29.77,NNW,338,0.0,7.6,79,0.00,,,0.00,WUHU216HW,2013-08-31 15:04:00,
2013-08-31 10:09:00,82.0,74.5,29.77,NNW,338,4.4,7.6,78,0.00,,,0.00,WUHU216HW,2013-08-31 15:09:00,
2013-08-31 10:14:00,82.5,74.2,29.76,NNE,23,4.0,5.8,76,0.00,,,0.00,WUHU216HW,2013-08-31 15:14:00,
2013-08-31 10:19:00,82.7,74.0,29.76,NNW,338,3.1,5.8,75,0.00,,,0.00,WUHU216HW,2013-08-31 15:19:00,
2013-08-31 10:24:00,82.9,74.1,29.76,North,0,1.1,6.2,74,0.00,,,0.00,WUHU216HW,2013-08-31 15:24:00,
2013-08-31 10:29:00,82.9,73.7,29.76,North,0,3.1,6.2,74,0.00,,,0.00,WUHU216HW,2013-08-31 15:29:00,
2013-08-31 10:34:00,83.1,73.9,29.76,North,0,2.0,5.5,74,0.00,,,0.00,WUHU216HW,2013-08-31 15:34:00,
2013-08-31 10:39:00,83.3,73.7,29.76,North,0,5.3,7.6,73,0.00,,,0.00,WUHU216HW,2013-08-31 15:39:00,
2013-08-31 10:44:00,83.4,73.8,29.76,NNE,23,1.7,7.6,73,0.00,,,0.00,WUHU216HW,2013-08-31 15:44:00,
2013-08-31 10:49:00,83.8,73.8,29.76,North,0,3.1,5.3,72,0.00,,,0.00,WUHU216HW,2013-08-31 15:49:00,
2013-08-31 10:54:00,84.3,74.3,29.76,NW,315,0.0,5.3,72,0.00,,,0.00,WUHU216HW,2013-08-31 15:54:00,
2013-08-31 10:59:00,84.7,74.3,29.75,NNW,338,1.1,3.8,71,0.00,,,0.00,WUHU216HW,2013-08-31 15:59:00,
2013-08-31 11:04:00,85.2,74.4,29.76,NE,45,1.7,3.8,70,0.00,,,0.00,WUHU216HW,2013-08-31 16:04:00,
2013-08-31 11:09:00,85.2,74.0,29.76,NNW,338,2.9,7.6,69,0.00,,,0.00,WUHU216HW,2013-08-31 16:09:00,
2013-08-31 11:14:00,84.5,73.2,29.76,North,0,2.9,7.6,69,0.00,,,0.00,WUHU216HW,2013-08-31 16:14:00,
2013-08-31 11:19:00,84.5,73.7,29.76,North,0,4.6,5.3,70,0.00,,,0.00,WUHU216HW,2013-08-31 16:19:00,
2013-08-31 11:24:00,84.7,73.9,29.76,NW,315,2.9,5.3,70,0.00,,,0.00,WUHU216HW,2013-08-31 16:24:00,
2013-08-31 11:29:00,85.1,74.3,29.76,NNE,23,3.3,4.2,70,0.00,,,0.00,WUHU216HW,2013-08-31 16:29:00,
2013-08-31 11:34:00,85.6,74.3,29.76,NE,45,3.3,3.3,69,0.00,,,0.00,WUHU216HW,2013-08-31 16:34:00,
2013-08-31 11:39:00,86.1,74.5,29.76,North,0,3.8,3.8,69,0.00,,,0.00,WUHU216HW,2013-08-31 16:39:00,
2013-08-31 11:44:00,86.5,74.2,29.76,NNE,23,4.6,4.6,67,0.00,,,0.00,WUHU216HW,2013-08-31 16:44:00,
2013-08-31 11:49:00,86.5,74.2,29.76,NNE,23,4.0,4.6,67,0.00,,,0.00,WUHU216HW,2013-08-31 16:49:00,
2013-08-31 11:54:00,86.5,74.2,29.76,NE,45,2.4,5.1,67,0.00,,,0.00,WUHU216HW,2013-08-31 16:54:00,
2013-08-31 11:59:00,86.5,74.2,29.76,NNE,23,6.9,6.9,67,0.00,,,0.00,WUHU216HW,2013-08-31 16:59:00,
2013-08-31 12:04:00,86.5,73.8,29.77,NNW,338,5.3,6.9,66,0.00,,,0.00,WUHU216HW,2013-08-31 17:04:00,
2013-08-31 12:09:00,86.0,73.7,29.77,North,0,0.0,6.2,67,0.00,,,0.00,WUHU216HW,2013-08-31 17:09:00,
2013-08-31 12:14:00,85.6,73.4,29.77,North,0,3.1,6.9,67,0.00,,,0.00,WUHU216HW,2013-08-31 17:14:00,
2013-08-31 12:19:00,84.7,72.5,29.77,North,0,2.4,7.8,67,0.00,,,0.00,WUHU216HW,2013-08-31 17:19:00,
2013-08-31 12:24:00,84.3,72.6,29.77,North,0,3.8,7.8,68,0.00,,,0.00,WUHU216HW,2013-08-31 17:24:00,
2013-08-31 12:29:00,84.0,72.7,29.76,North,0,5.3,6.4,69,0.00,,,0.00,WUHU216HW,2013-08-31 17:29:00,
2013-08-31 12:34:00,84.3,73.1,29.76,NNE,23,3.1,5.3,69,0.00,,,0.00,WUHU216HW,2013-08-31 17:34:00,
2013-08-31 12:39:00,84.5,73.2,29.76,NNW,338,2.4,5.3,69,0.00,,,0.00,WUHU216HW,2013-08-31 17:39:00,
2013-08-31 12:45:00,85.1,73.8,29.76,NNE,23,2.9,3.3,69,0.00,,,0.00,WUHU216HW,2013-08-31 17:45:00,
2013-08-31 12:50:00,86.1,74.4,29.75,North,0,3.5,3.5,68,0.00,,,0.00,WUHU216HW,2013-08-31 17:50:00,
2013-08-31 12:55:00,86.3,74.1,29.75,ESE,113,3.1,3.5,67,0.00,,,0.00,WUHU216HW,2013-08-31 17:55:00,
2013-08-31 13:00:00,87.0,74.7,29.75,ENE,68,3.1,3.5,67,0.00,,,0.00,WUHU216HW,2013-08-31 18:00:00,
2013-08-31 13:05:00,88.1,74.9,29.75,NE,45,2.4,4.0,65,0.00,,,0.00,WUHU216HW,2013-08-31 18:05:00,
2013-08-31 13:10:00,88.3,74.1,29.76,ENE,68,4.9,4.9,63,0.00,,,0.00,WUHU216HW,2013-08-31 18:10:00,
2013-08-31 13:15:00,88.8,75.1,29.75,North,0,2.6,4.9,64,0.00,,,0.00,WUHU216HW,2013-08-31 18:15:00,
2013-08-31 13:20:00,89.4,75.1,29.76,NNW,338,4.6,4.6,63,0.00,,,0.00,WUHU216HW,2013-08-31 18:20:00,
2013-08-31 13:25:00,89.6,75.3,29.76,WNW,293,4.4,4.6,63,0.00,,,0.00,WUHU216HW,2013-08-31 18:25:00,
2013-08-31 13:30:00,89.7,75.0,29.76,North,0,2.9,4.6,62,0.00,,,0.00,WUHU216HW,2013-08-31 18:30:00,
2013-08-31 13:35:00,89.9,75.2,29.76,NNE,23,0.0,2.9,62,0.00,,,0.00,WUHU216HW,2013-08-31 18:35:00,
2013-08-31 13:40:00,90.1,75.3,29.76,SSW,203,0.0,2.2,62,0.00,,,0.00,WUHU216HW,2013-08-31 18:40:00,
2013-08-31 13:45:00,90.5,75.6,29.76,NNW,338,0.0,0.0,62,0.00,,,0.00,WUHU216HW,2013-08-31 18:45:00,
2013-08-31 13:50:00,91.0,75.2,29.76,NNW,338,2.2,6.2,60,0.00,,,0.00,WUHU216HW,2013-08-31 18:50:00,
2013-08-31 13:55:00,91.2,75.3,29.76,NNW,338,2.9,6.2,60,0.00,,,0.00,WUHU216HW,2013-08-31 18:55:00,
2013-08-31 14:00:00,91.0,74.6,29.76,NNE,23,0.0,4.4,59,0.00,,,0.00,WUHU216HW,2013-08-31 19:00:00,
2013-08-31 14:05:00,91.2,74.8,29.76,NNE,23,8.7,8.7,59,0.00,,,0.00,WUHU216HW,2013-08-31 19:05:00,
2013-08-31 14:10:00,90.6,74.3,29.76,West,270,0.0,8.7,59,0.00,,,0.00,WUHU216HW,2013-08-31 19:10:00,
2013-08-31 14:15:00,90.3,74.0,29.76,North,0,3.5,8.7,59,0.00,,,0.00,WUHU216HW,2013-08-31 19:15:00,
2013-08-31 14:20:00,89.7,74.1,29.75,North,0,4.4,4.4,60,0.00,,,0.00,WUHU216HW,2013-08-31 19:20:00,
2013-08-31 14:25:00,89.7,74.1,29.75,North,0,4.4,4.4,60,0.00,,,0.00,WUHU216HW,2013-08-31 19:25:00,
2013-08-31 14:30:00,90.1,74.8,29.75,NE,45,1.7,8.7,61,0.00,,,0.00,WUHU216HW,2013-08-31 19:30:00,
2013-08-31 14:35:00,91.0,75.2,29.75,NNE,23,0.0,8.7,60,0.00,,,0.00,WUHU216HW,2013-08-31 19:35:00,
2013-08-31 14:40:00,91.5,75.1,29.75,North,0,8.2,8.2,59,0.00,,,0.00,WUHU216HW,2013-08-31 19:40:00,
2013-08-31 14:45:00,91.0,74.1,29.75,NE,45,0.8,8.2,58,0.00,,,0.00,WUHU216HW,2013-08-31 19:45:00,
2013-08-31 14:50:00,90.3,74.0,29.75,North,0,2.9,7.8,59,0.00,,,0.00,WUHU216HW,2013-08-31 19:50:00,
2013-08-31 14:55:00,89.7,74.1,29.75,NNE,23,3.8,5.1,60,0.00,,,0.00,WUHU216HW,2013-08-31 19:55:00,
2013-08-31 15:00:00,89.2,73.6,29.75,NW,315,2.6,3.8,60,0.00,,,0.00,WUHU216HW,2013-08-31 20:00:00,
2013-08-31 15:05:00,88.3,73.2,29.75,NNW,338,5.5,5.5,61,0.00,,,0.00,WUHU216HW,2013-08-31 20:05:00,
2013-08-31 15:10:00,87.6,72.5,29.75,North,0,1.1,5.5,61,0.00,,,0.00,WUHU216HW,2013-08-31 20:10:00,
2013-08-31 15:15:00,87.6,73.0,29.75,North,0,5.8,5.8,62,0.00,,,0.00,WUHU216HW,2013-08-31 20:15:00,
2013-08-31 15:20:00,88.3,73.2,29.75,NW,315,5.1,8.2,61,0.00,,,0.00,WUHU216HW,2013-08-31 20:20:00,
2013-08-31 15:25:00,88.1,73.0,29.75,ENE,68,0.0,8.2,61,0.00,,,0.00,WUHU216HW,2013-08-31 20:25:00,
2013-08-31 15:30:00,88.8,74.2,29.74,North,0,2.2,5.1,62,0.00,,,0.00,WUHU216HW,2013-08-31 20:30:00,
2013-08-31 15:35:00,89.4,74.2,29.74,NW,315,0.0,3.8,61,0.00,,,0.00,WUHU216HW,2013-08-31 20:35:00,
2013-08-31 15:40:00,90.3,74.5,29.74,North,0,3.5,3.5,60,0.00,,,0.00,WUHU216HW,2013-08-31 20:40:00,
2013-08-31 15:45:00,90.3,74.0,29.74,NNE,23,3.8,4.9,59,0.00,,,0.00,WUHU216HW,2013-08-31 20:45:00,
2013-08-31 15:50:00,90.1,73.8,29.74,NNW,338,2.4,4.9,59,0.00,,,0.00,WUHU216HW,2013-08-31 20:50:00,
2013-08-31 15:55:00,90.3,74.0,29.74,ENE,68,0.0,4.9,59,0.00,,,0.00,WUHU216HW,2013-08-31 20:55:00,
2013-08-31 16:00:00,90.6,74.3,29.74,NNE,23,2.2,2.4,59,0.00,,,0.00,WUHU216HW,2013-08-31 21:00:00,
2013-08-31 16:05:00,90.8,73.9,29.74,NNE,23,4.6,7.8,58,0.00,,,0.00,WUHU216HW,2013-08-31 21:05:00,
2013-08-31 16:10:00,90.3,73.5,29.73,NNW,338,5.8,8.0,58,0.00,,,0.00,WUHU216HW,2013-08-31 21:10:00,
2013-08-31 16:15:00,89.9,73.1,29.73,NW,315,1.5,8.0,58,0.00,,,0.00,WUHU216HW,2013-08-31 21:15:00,
2013-08-31 16:20:00,89.9,73.7,29.73,NNE,23,2.9,4.6,59,0.00,,,0.00,WUHU216HW,2013-08-31 21:20:00,
2013-08-31 16:25:00,89.7,73.0,29.73,North,0,5.3,5.3,58,0.00,,,0.00,WUHU216HW,2013-08-31 21:25:00,
2013-08-31 16:30:00,89.7,73.0,29.73,NW,315,0.0,5.3,58,0.00,,,0.00,WUHU216HW,2013-08-31 21:30:00,
2013-08-31 16:35:00,90.1,73.3,29.73,NNE,23,1.7,4.0,58,0.00,,,0.00,WUHU216HW,2013-08-31 21:35:00,
2013-08-31 16:40:00,89.9,72.6,29.73,ESE,113,1.3,4.0,57,0.00,,,0.00,WUHU216HW,2013-08-31 21:40:00,
2013-08-31 16:45:00,90.3,72.9,29.73,NNW,338,6.9,6.9,57,0.00,,,0.00,WUHU216HW,2013-08-31 21:45:00,
2013-08-31 16:50:00,89.9,72.6,29.73,NW,315,1.5,6.9,57,0.00,,,0.00,WUHU216HW,2013-08-31 21:50:00,
2013-08-31 16:55:00,89.7,72.4,29.73,North,0,4.2,4.9,57,0.00,,,0.00,WUHU216HW,2013-08-31 21:55:00,
2013-08-31 17:00:00,89.4,72.1,29.74,NW,315,1.3,4.9,57,0.00,,,0.00,WUHU216HW,2013-08-31 22:00:00,
2013-08-31 17:05:00,89.7,73.0,29.73,NNW,338,2.6,4.2,58,0.00,,,0.00,WUHU216HW,2013-08-31 22:05:00,
2013-08-31 17:10:00,89.4,72.6,29.73,East,90,3.5,5.8,58,0.00,,,0.00,WUHU216HW,2013-08-31 22:10:00,
2013-08-31 17:15:00,89.4,73.2,29.73,NW,315,3.8,5.8,59,0.00,,,0.00,WUHU216HW,2013-08-31 22:15:00,
2013-08-31 17:20:00,89.4,72.6,29.73,North,0,4.4,4.4,58,0.00,,,0.00,WUHU216HW,2013-08-31 22:20:00,
2013-08-31 17:25:00,89.4,72.6,29.73,NNE,23,3.5,4.4,58,0.00,,,0.00,WUHU216HW,2013-08-31 22:25:00,
2013-08-31 17:30:00,89.4,72.6,29.73,North,0,3.1,4.4,58,0.00,,,0.00,WUHU216HW,2013-08-31 22:30:00,
2013-08-31 17:35:00,89.7,73.0,29.73,North,0,0.0,4.2,58,0.00,,,0.00,WUHU216HW,2013-08-31 22:35:00,
2013-08-31 17:40:00,89.7,72.4,29.73,North,0,2.2,4.0,57,0.00,,,0.00,WUHU216HW,2013-08-31 22:40:00,
2013-08-31 17:45:00,89.4,72.1,29.73,NNW,338,0.0,4.0,57,0.00,,,0.00,WUHU216HW,2013-08-31 22:45:00,
2013-08-31 17:50:00,89.6,72.3,29.73,NNE,23,0.0,2.4,57,0.00,,,0.00,WUHU216HW,2013-08-31 22:50:00,
2013-08-31 17:55:00,89.7,73.0,29.73,NE,45,0.0,1.7,58,0.00,,,0.00,WUHU216HW,2013-08-31 22:55:00,
2013-08-31 18:00:00,89.9,72.6,29.72,North,0,2.9,2.9,57,0.00,,,0.00,WUHU216HW,2013-08-31 23:00:00,
2013-08-31 18:05:00,89.6,71.7,29.73,North,0,0.0,2.9,56,0.00,,,0.00,WUHU216HW,2013-08-31 23:05:00,
2013-08-31 18:10:00,89.4,72.1,29.72,North,0,4.6,4.6,57,0.00,,,0.00,WUHU216HW,2013-08-31 23:10:00,
2013-08-31 18:15:00,88.5,70.9,29.72,WNW,293,1.5,4.6,56,0.00,,,0.00,WUHU216HW,2013-08-31 23:15:00,
2013-08-31 18:20:00,88.1,70.4,29.73,NNW,338,1.1,3.5,56,0.00,,,0.00,WUHU216HW,2013-08-31 23:20:00,
2013-08-31 18:25:00,87.9,70.3,29.73,SSW,203,1.5,2.9,56,0.00,,,0.00,WUHU216HW,2013-08-31 23:25:00,
2013-08-31 18:30:00,87.8,70.1,29.73,NNW,338,2.4,2.4,56,0.00,,,0.00,WUHU216HW,2013-08-31 23:30:00,
2013-08-31 18:35:00,87.4,70.3,29.73,WNW,293,0.0,2.4,57,0.00,,,0.00,WUHU216HW,2013-08-31 23:35:00,
2013-08-31 18:40:00,87.0,69.9,29.73,North,0,2.2,2.2,57,0.00,,,0.00,WUHU216HW,2013-08-31 23:40:00,
2013-08-31 18:45:00,86.3,70.1,29.73,NNW,338,1.3,2.2,58,0.00,,,0.00,WUHU216HW,2013-08-31 23:45:00,
2013-08-31 18:50:00,85.8,69.8,29.72,ENE,68,0.0,1.7,59,0.00,,,0.00,WUHU216HW,2013-08-31 23:50:00,
2013-08-31 18:55:00,85.6,70.1,29.72,NNE,23,0.0,1.7,60,0.00,,,0.00,WUHU216HW,2013-08-31 23:55:00,
2013-08-31 19:00:00,85.2,70.3,29.72,NE,45,0.0,2.2,61,0.00,,,0.00,WUHU216HW,2013-09-01 00:00:00,
2013-08-31 19:05:00,84.9,70.4,29.72,North,0,0.0,2.2,62,0.00,,,0.00,WUHU216HW,2013-09-01 00:05:00,
2013-08-31 19:10:00,84.7,70.7,29.72,NNE,23,0.0,0.0,63,0.00,,,0.00,WUHU216HW,2013-09-01 00:10:00,
2013-08-31 19:15:00,84.2,70.7,29.72,ENE,68,0.0,0.0,64,0.00,,,0.00,WUHU216HW,2013-09-01 00:15:00,
2013-08-31 19:20:00,83.8,70.7,29.71,ENE,68,0.0,0.0,65,0.00,,,0.00,WUHU216HW,2013-09-01 00:20:00,
2013-08-31 19:25:00,83.4,70.4,29.72,NNE,23,0.0,0.0,65,0.00,,,0.00,WUHU216HW,2013-09-01 00:25:00,
2013-08-31 19:30:00,83.1,70.5,29.72,North,0,0.0,0.0,66,0.00,,,0.00,WUHU216HW,2013-09-01 00:30:00,
2013-08-31 19:35:00,82.5,70.8,29.72,NNE,23,0.0,1.5,68,0.00,,,0.00,WUHU216HW,2013-09-01 00:35:00,
2013-08-31 19:40:00,82.2,70.5,29.72,NNE,23,1.3,1.5,68,0.00,,,0.00,WUHU216HW,2013-09-01 00:40:00,
2013-08-31 19:45:00,81.6,70.5,29.72,North,0,0.0,1.3,69,0.00,,,0.00,WUHU216HW,2013-09-01 00:45:00,
2013-08-31 19:50:00,81.3,70.1,29.72,North,0,0.0,0.0,69,0.00,,,0.00,WUHU216HW,2013-09-01 00:50:00,
2013-08-31 19:55:00,80.9,70.3,29.72,NNE,23,0.0,0.0,70,0.00,,,0.00,WUHU216HW,2013-09-01 00:55:00,
2013-08-31 20:00:00,80.4,70.1,29.72,NNE,23,0.0,0.0,71,0.00,,,0.00,WUHU216HW,2013-09-01 01:00:00,
2013-08-31 20:05:00,80.2,70.4,29.72,NNE,23,0.0,0.0,72,0.00,,,0.00,WUHU216HW,2013-09-01 01:05:00,
2013-08-31 20:10:00,79.5,69.6,29.72,NNE,23,0.0,0.0,72,0.00,,,0.00,WUHU216HW,2013-09-01 01:10:00,
2013-08-31 20:15:00,79.1,69.7,29.73,NNE,23,2.9,2.9,73,0.00,,,0.00,WUHU216HW,2013-09-01 01:15:00,
2013-08-31 20:20:00,78.9,69.9,29.73,NNE,23,0.0,2.9,74,0.00,,,0.00,WUHU216HW,2013-09-01 01:20:00,
2013-08-31 20:25:00,78.6,69.5,29.73,North,0,0.0,2.9,74,0.00,,,0.00,WUHU216HW,2013-09-01 01:25:00,
2013-08-31 20:30:00,78.6,69.9,29.73,NNE,23,0.0,0.0,75,0.00,,,0.00,WUHU216HW,2013-09-01 01:30:00,
2013-08-31 20:35:00,78.4,69.8,29.73,NNE,23,0.0,0.0,75,0.00,,,0.00,WUHU216HW,2013-09-01 01:35:00,
2013-08-31 20:40:00,78.0,69.0,29.73,ENE,68,0.0,0.0,74,0.00,,,0.00,WUHU216HW,2013-09-01 01:40:00,
2013-08-31 20:46:00,77.7,68.7,29.74,ENE,68,0.0,0.0,74,0.00,,,0.00,WUHU216HW,2013-09-01 01:46:00,
2013-08-31 20:51:00,77.5,68.9,29.74,ENE,68,0.0,0.0,75,0.00,,,0.00,WUHU216HW,2013-09-01 01:51:00,
2013-08-31 20:56:00,77.3,69.5,29.74,ENE,68,0.0,0.0,77,0.00,,,0.00,WUHU216HW,2013-09-01 01:56:00,
2013-08-31 21:01:00,77.1,69.3,29.74,NE,45,0.0,0.0,77,0.00,,,0.00,WUHU216HW,2013-09-01 02:01:00,
2013-08-31 21:06:00,76.8,69.0,29.74,NE,45,0.0,0.0,77,0.00,,,0.00,WUHU216HW,2013-09-01 02:06:00,
2013-08-31 21:11:00,76.6,68.8,29.74,NE,45,0.0,0.0,77,0.00,,,0.00,WUHU216HW,2013-09-01 02:11:00,
2013-08-31 21:16:00,76.4,69.0,29.75,NE,45,0.0,0.0,78,0.00,,,0.00,WUHU216HW,2013-09-01 02:16:00,
2013-08-31 21:21:00,76.2,69.2,29.75,NNE,23,0.0,0.0,79,0.00,,,0.00,WUHU216HW,2013-09-01 02:21:00,
2013-08-31 21:27:00,76.1,69.1,29.75,NNE,23,0.0,0.0,79,0.00,,,0.00,WUHU216HW,2013-09-01 02:27:00,
2013-08-31 21:32:00,75.9,68.9,29.74,NE,45,0.0,0.0,79,0.00,,,0.00,WUHU216HW,2013-09-01 02:32:00,
2013-08-31 21:37:00,75.7,69.2,29.75,NNE,23,0.0,0.0,80,0.00,,,0.00,WUHU216HW,2013-09-01 02:37:00,
2013-08-31 21:42:00,75.7,69.2,29.75,NE,45,0.0,0.0,80,0.00,,,0.00,WUHU216HW,2013-09-01 02:42:00,
2013-08-31 21:47:00,75.7,69.5,29.75,NNE,23,1.1,1.1,81,0.00,,,0.00,WUHU216HW,2013-09-01 02:47:00,
2013-08-31 21:52:00,75.7,69.5,29.75,NE,45,0.0,1.1,81,0.00,,,0.00,WUHU216HW,2013-09-01 02:52:00,
2013-08-31 21:57:00,75.7,69.5,29.75,NE,45,0.0,0.0,81,0.00,,,0.00,WUHU216HW,2013-09-01 02:57:00,
2013-08-31 22:02:00,75.5,69.3,29.75,NNE,23,0.0,0.0,81,0.00,,,0.00,WUHU216HW,2013-09-01 03:02:00,
2013-08-31 22:07:00,75.3,69.2,29.75,NNE,23,0.0,0.0,81,0.00,,,0.00,WUHU216HW,2013-09-01 03:07:00,
2013-08-31 22:12:00,75.3,69.2,29.75,NE,45,0.0,1.3,81,0.00,,,0.00,WUHU216HW,2013-09-01 03:12:00,
2013-08-31 22:17:00,75.3,69.2,29.76,NNE,23,0.0,1.3,81,0.00,,,0.00,WUHU216HW,2013-09-01 03:17:00,
2013-08-31 22:22:00,75.3,69.2,29.75,ENE,68,0.0,1.3,81,0.00,,,0.00,WUHU216HW,2013-09-01 03:22:00,
2013-08-31 22:27:00,75.0,68.8,29.76,NNE,23,0.0,0.0,81,0.00,,,0.00,WUHU216HW,2013-09-01 03:27:00,
2013-08-31 22:32:00,75.0,68.8,29.76,NE,45,0.0,0.0,81,0.00,,,0.00,WUHU216HW,2013-09-01 03:32:00,
2013-08-31 22:37:00,74.8,68.7,29.76,NE,45,0.0,0.0,81,0.00,,,0.00,WUHU216HW,2013-09-01 03:37:00,
2013-08-31 22:42:00,74.8,68.7,29.75,NE,45,1.3,1.3,81,0.00,,,0.00,WUHU216HW,2013-09-01 03:42:00,
2013-08-31 22:47:00,74.6,68.8,29.75,ENE,68,0.0,1.7,82,0.00,,,0.00,WUHU216HW,2013-09-01 03:47:00,
2013-08-31 22:52:00,74.6,68.8,29.75,NE,45,0.0,1.7,82,0.00,,,0.00,WUHU216HW,2013-09-01 03:52:00,
2013-08-31 22:57:00,74.4,68.6,29.75,NE,45,0.0,1.1,82,0.00,,,0.00,WUHU216HW,2013-09-01 03:57:00,
2013-08-31 23:01:00,74.4,68.6,29.75,NE,45,3.1,3.1,82,0.00,,,0.00,WUHU216HW,2013-09-01 04:01:00,
2013-08-31 23:02:00,74.4,68.6,29.75,ENE,68,1.5,3.1,82,0.00,,,0.00,WUHU216HW,2013-09-01 04:02:00,
2013-08-31 23:07:00,74.4,68.6,29.75,NE,45,0.0,3.1,82,0.00,,,0.00,WUHU216HW,2013-09-01 04:07:00,
2013-08-31 23:12:00,74.4,69.0,29.75,ENE,68,1.5,1.5,83,0.00,,,0.00,WUHU216HW,2013-09-01 04:12:00,
2013-08-31 23:17:00,74.3,68.8,29.74,ENE,68,0.0,2.6,83,0.00,,,0.00,WUHU216HW,2013-09-01 04:17:00,
2013-08-31 23:22:00,74.1,68.6,29.74,ENE,68,1.3,4.6,83,0.00,,,0.00,WUHU216HW,2013-09-01 04:22:00,
2013-08-31 23:27:00,74.1,68.6,29.74,ENE,68,0.0,4.6,83,0.00,,,0.00,WUHU216HW,2013-09-01 04:27:00,
2013-08-31 23:32:00,74.1,68.6,29.73,ENE,68,2.0,2.9,83,0.00,,,0.00,WUHU216HW,2013-09-01 04:32:00,
2013-08-31 23:37:00,74.1,68.6,29.74,NE,45,2.0,2.9,83,0.00,,,0.00,WUHU216HW,2013-09-01 04:37:00,
2013-08-31 23:42:00,73.9,68.4,29.74,NE,45,2.4,2.6,83,0.00,,,0.00,WUHU216HW,2013-09-01 04:42:00,
2013-08-31 23:47:00,73.9,68.4,29.74,ENE,68,4.2,4.2,83,0.00,,,0.00,WUHU216HW,2013-09-01 04:47:00,
2013-08-31 23:52:00,73.9,68.8,29.75,NE,45,3.1,4.2,84,0.00,,,0.00,WUHU216HW,2013-09-01 04:52:00,
2013-08-31 23:57:00,73.7,68.6,29.75,NE,45,2.9,4.2,84,0.00,,,0.00,WUHU216HW,2013-09-01 04:57:00,